| time (UTC) | temp C | wind direction | speed KPH | gust KPH | rain 1hr cm | rain 24hr cm | rain mn cm | humidity % | barometer mb |
| 20260906063604 | 18 | 80 | 27.4 | 43.5 | 0.00 | 0.00 | 0.00 | 65 | 1021.2 |
| 20260906062703 | 18 | 81 | 25.7 | 38.6 | 0.00 | 0.00 | 0.00 | 65 | 1021.0 |
| 20260906061803 | 18 | 75 | 27.4 | 43.5 | 0.00 | 0.00 | 0.00 | 64 | 1020.9 |
| 20260906060903 | 18 | 69 | 27.4 | 53.1 | 0.00 | 0.00 | 0.00 | 65 | 1020.9 |
| 20260906060004 | 17 | 74 | 27.4 | 41.8 | 0.00 | 0.00 | 0.00 | 66 | 1020.9 |
| 20260906055403 | 17 | 70 | 25.7 | 38.6 | 0.00 | 0.00 | 0.00 | 67 | 1021.0 |
| 20260906054503 | 17 | 79 | 27.4 | 38.6 | 0.00 | 0.00 | 0.00 | 68 | 1020.7 |
| 20260906053603 | 17 | 80 | 27.4 | 41.8 | 0.00 | 0.00 | 0.00 | 69 | 1020.7 |
| 20260906052703 | 17 | 76 | 29.0 | 41.8 | 0.00 | 0.00 | 0.00 | 69 | 1020.6 |
| 20260906051803 | 17 | 78 | 27.4 | 45.1 | 0.00 | 0.00 | 0.00 | 69 | 1020.3 |
| 20260906050903 | 17 | 72 | 27.4 | 51.5 | 0.00 | 0.00 | 0.00 | 69 | 1020.3 |
| 20260906050004 | 17 | 73 | 29.0 | 43.5 | 0.00 | 0.00 | 0.00 | 71 | 1020.2 |
| 20260906045403 | 17 | 75 | 29.0 | 43.5 | 0.00 | 0.00 | 0.00 | 71 | 1020.3 |
| 20260906044718 | 17 | 72 | 29.0 | 40.2 | 0.00 | 0.00 | 0.00 | 72 | 1020.2 |
| 20260906043603 | 17 | 77 | 27.4 | 46.7 | 0.00 | 0.00 | 0.00 | 72 | 1020.1 |
| 20260906042917 | 17 | 76 | 29.0 | 46.7 | 0.00 | 0.00 | 0.00 | 72 | 1019.9 |
| 20260906041803 | 17 | 77 | 27.4 | 43.5 | 0.00 | 0.00 | 0.00 | 71 | 1019.9 |
| 20260906040903 | 17 | 77 | 29.0 | 48.3 | 0.00 | 0.00 | 0.00 | 70 | 1019.8 |
| 20260906040004 | 17 | 79 | 27.4 | 40.2 | 0.00 | 0.00 | 0.00 | 69 | 1019.8 |
| 20260906035403 | 17 | 76 | 27.4 | 40.2 | 0.00 | 0.00 | 0.00 | 69 | 1019.7 |
| 20260906034718 | 17 | 78 | 29.0 | 40.2 | 0.00 | 0.00 | 0.00 | 69 | 1019.7 |
| 20260906033604 | 17 | 81 | 27.4 | 41.8 | 0.00 | 0.00 | 0.00 | 69 | 1019.8 |
| 20260906032703 | 18 | 79 | 27.4 | 41.8 | 0.00 | 0.00 | 0.00 | 69 | 1019.9 |
| 20260906031804 | 18 | 76 | 27.4 | 38.6 | 0.00 | 0.00 | 0.00 | 69 | 1019.7 |
| 20260906030903 | 18 | 77 | 27.4 | 45.1 | 0.00 | 0.00 | 0.00 | 68 | 1019.5 |
| 20260906030004 | 18 | 77 | 25.7 | 38.6 | 0.00 | 0.00 | 0.00 | 67 | 1019.5 |
| 20260906025403 | 18 | 80 | 22.5 | 35.4 | 0.00 | 0.00 | 0.00 | 66 | 1019.6 |
| 20260906024503 | 18 | 78 | 22.5 | 37.0 | 0.00 | 0.00 | 0.00 | 66 | 1019.5 |
| 20260906023603 | 18 | 78 | 22.5 | 33.8 | 0.00 | 0.00 | 0.00 | 65 | 1019.6 |
| 20260906022703 | 18 | 78 | 22.5 | 33.8 | 0.00 | 0.00 | 0.00 | 65 | 1019.5 |
| 20260906021803 | 18 | 69 | 22.5 | 37.0 | 0.00 | 0.00 | 0.00 | 65 | 1019.4 |
| 20260906021117 | 18 | 74 | 20.9 | 35.4 | 0.00 | 0.00 | 0.00 | 64 | 1019.4 |
| 20260906020218 | 19 | 71 | 20.9 | 32.2 | 0.00 | 0.00 | 0.00 | 64 | 1019.4 |
| 20260906015403 | 19 | 77 | 19.3 | 29.0 | 0.00 | 0.00 | 0.00 | 64 | 1019.5 |
| 20260906014503 | 19 | 78 | 20.9 | 32.2 | 0.00 | 0.00 | 0.00 | 64 | 1019.5 |
| 20260906013603 | 19 | 76 | 19.3 | 30.6 | 0.00 | 0.00 | 0.00 | 64 | 1019.5 |
| 20260906012703 | 19 | 80 | 19.3 | 29.0 | 0.00 | 0.00 | 0.00 | 65 | 1019.6 |
| 20260906011803 | 19 | 81 | 20.9 | 33.8 | 0.00 | 0.00 | 0.00 | 64 | 1019.5 |
| 20260906010903 | 19 | 75 | 20.9 | 32.2 | 0.00 | 0.00 | 0.00 | 64 | 1019.5 |
| 20260906010218 | 19 | 72 | 22.5 | 33.8 | 0.00 | 0.00 | 0.00 | 64 | 1019.5 |
| 20260906005403 | 19 | 79 | 24.1 | 37.0 | 0.00 | 0.00 | 0.00 | 64 | 1019.4 |
| 20260906004503 | 19 | 80 | 24.1 | 33.8 | 0.00 | 0.00 | 0.00 | 64 | 1019.4 |
| 20260906003603 | 19 | 76 | 22.5 | 33.8 | 0.00 | 0.00 | 0.00 | 64 | 1019.3 |
| 20260906002917 | 19 | 77 | 24.1 | 37.0 | 0.00 | 0.00 | 0.00 | 64 | 1019.2 |
| 20260906001803 | 19 | 78 | 25.7 | 35.4 | 0.00 | 0.00 | 0.00 | 64 | 1019.2 |
| 20260906000903 | 19 | 71 | 24.1 | 37.0 | 0.00 | 0.00 | 0.00 | 65 | 1019.2 |
| 20260906000003 | 19 | 79 | 22.5 | 33.8 | 0.00 | 0.00 | 0.00 | 65 | 1019.3 |
| 20260905235403 | 19 | 80 | 24.1 | 35.4 | 0.00 | 0.00 | 0.00 | 65 | 1019.2 |
| 20260905234503 | 19 | 72 | 24.1 | 38.6 | 0.00 | 0.00 | 0.00 | 65 | 1019.1 |
| 20260905233817 | 19 | 75 | 24.1 | 35.4 | 0.00 | 0.00 | 0.00 | 65 | 1019.2 |
| 20260905232703 | 19 | 77 | 24.1 | 40.2 | 0.00 | 0.00 | 0.00 | 65 | 1019.1 |
| 20260905231804 | 19 | 77 | 24.1 | 35.4 | 0.00 | 0.00 | 0.00 | 65 | 1019.1 |
| 20260905230903 | 19 | 80 | 22.5 | 35.4 | 0.00 | 0.00 | 0.00 | 65 | 1019.1 |
| 20260905230004 | 19 | 76 | 22.5 | 33.8 | 0.00 | 0.00 | 0.00 | 65 | 1019.2 |
| 20260905225616 | 19 | 74 | 20.9 | 33.8 | 0.00 | 0.00 | 0.00 | 65 | 1019.1 |
| 20260905224503 | 20 | 81 | 24.1 | 33.8 | 0.00 | 0.00 | 0.00 | 64 | 1018.9 |
| 20260905223604 | 20 | 76 | 25.7 | 37.0 | 0.00 | 0.00 | 0.00 | 64 | 1018.9 |
| 20260905222916 | 20 | 74 | 27.4 | 35.4 | 0.00 | 0.00 | 0.00 | 64 | 1018.8 |
| 20260905221803 | 20 | 81 | 24.1 | 35.4 | 0.00 | 0.00 | 0.00 | 63 | 1018.8 |
| 20260905220903 | 20 | 79 | 22.5 | 32.2 | 0.00 | 0.00 | 0.00 | 63 | 1018.9 |
| 20260905220004 | 20 | 83 | 24.1 | 40.2 | 0.00 | 0.00 | 0.00 | 62 | 1018.8 |
| 20260905215403 | 20 | 81 | 24.1 | 37.0 | 0.00 | 0.00 | 0.00 | 63 | 1018.8 |
| 20260905214503 | 20 | 74 | 24.1 | 33.8 | 0.00 | 0.00 | 0.00 | 62 | 1018.7 |
| 20260905213817 | 20 | 76 | 22.5 | 37.0 | 0.00 | 0.00 | 0.00 | 62 | 1018.8 |
| 20260905212703 | 20 | 74 | 22.5 | 32.2 | 0.00 | 0.00 | 0.00 | 62 | 1018.8 |
| 20260905211803 | 20 | 79 | 22.5 | 33.8 | 0.00 | 0.00 | 0.00 | 62 | 1018.8 |
| 20260905210903 | 20 | 79 | 25.7 | 45.1 | 0.00 | 0.00 | 0.00 | 61 | 1018.7 |
| 20260905210004 | 20 | 81 | 24.1 | 35.4 | 0.00 | 0.00 | 0.00 | 62 | 1018.5 |
| 20260905205403 | 20 | 75 | 24.1 | 35.4 | 0.00 | 0.00 | 0.00 | 63 | 1018.7 |
| 20260905204503 | 20 | 81 | 20.9 | 35.4 | 0.00 | 0.00 | 0.00 | 64 | 1018.7 |
| 20260905203603 | 20 | 82 | 22.5 | 35.4 | 0.00 | 0.00 | 0.00 | 64 | 1018.8 |
| 20260905202918 | 20 | 77 | 22.5 | 32.2 | 0.00 | 0.00 | 0.00 | 65 | 1018.6 |
| 20260905201803 | 20 | 77 | 22.5 | 35.4 | 0.00 | 0.00 | 0.00 | 64 | 1018.5 |
| 20260905200903 | 20 | 79 | 22.5 | 33.8 | 0.00 | 0.00 | 0.00 | 65 | 1018.5 |
| 20260905200003 | 20 | 74 | 24.1 | 35.4 | 0.00 | 0.00 | 0.00 | 65 | 1018.4 |
| 20260905195403 | 20 | 75 | 24.1 | 35.4 | 0.00 | 0.00 | 0.00 | 65 | 1018.3 |
| 20260905194503 | 20 | 73 | 24.1 | 40.2 | 0.00 | 0.00 | 0.00 | 66 | 1018.3 |
| 20260905193603 | 20 | 72 | 24.1 | 35.4 | 0.00 | 0.00 | 0.00 | 66 | 1018.3 |
| 20260905192703 | 20 | 74 | 22.5 | 33.8 | 0.00 | 0.00 | 0.00 | 66 | 1018.2 |
| 20260905191803 | 21 | 66 | 24.1 | 33.8 | 0.00 | 0.00 | 0.00 | 66 | 1018.1 |
| 20260905190903 | 21 | 65 | 20.9 | 33.8 | 0.00 | 0.00 | 0.00 | 66 | 1018.1 |
| 20260905190004 | 21 | 75 | 22.5 | 33.8 | 0.00 | 0.00 | 0.00 | 65 | 1018.0 |
| 20260905185403 | 21 | 70 | 22.5 | 33.8 | 0.00 | 0.00 | 0.00 | 65 | 1017.9 |
| 20260905184503 | 21 | 72 | 20.9 | 37.0 | 0.00 | 0.00 | 0.00 | 65 | 1017.9 |
| 20260905183603 | 21 | 78 | 20.9 | 33.8 | 0.00 | 0.00 | 0.00 | 65 | 1017.5 |
| 20260905182703 | 21 | 82 | 20.9 | 30.6 | 0.00 | 0.00 | 0.00 | 65 | 1017.7 |
| 20260905181803 | 21 | 77 | 22.5 | 33.8 | 0.00 | 0.00 | 0.00 | 64 | 1017.5 |
| 20260905180903 | 21 | 78 | 24.1 | 33.8 | 0.00 | 0.00 | 0.00 | 65 | 1017.4 |
| 20260905180004 | 21 | 75 | 22.5 | 37.0 | 0.00 | 0.00 | 0.00 | 64 | 1017.2 |
| 20260905175403 | 21 | 75 | 20.9 | 32.2 | 0.00 | 0.00 | 0.00 | 64 | 1017.4 |
| 20260905174718 | 21 | 79 | 19.3 | 33.8 | 0.00 | 0.00 | 0.00 | 64 | 1017.1 |
| 20260905173603 | 21 | 67 | 19.3 | 29.0 | 0.00 | 0.00 | 0.00 | 63 | 1017.2 |
| 20260905172703 | 22 | 73 | 19.3 | 30.6 | 0.00 | 0.00 | 0.00 | 63 | 1017.1 |
| 20260905172018 | 22 | 79 | 22.5 | 32.2 | 0.00 | 0.00 | 0.00 | 62 | 1017.0 |
| 20260905170903 | 22 | 72 | 20.9 | 33.8 | 0.00 | 0.00 | 0.00 | 63 | 1016.9 |
| 20260905170003 | 22 | 75 | 17.7 | 30.6 | 0.00 | 0.00 | 0.00 | 63 | 1017.1 |
| 20260905165403 | 22 | 75 | 14.5 | 27.4 | 0.00 | 0.00 | 0.00 | 63 | 1016.9 |
| 20260905164503 | 22 | 76 | 17.7 | 29.0 | 0.00 | 0.00 | 0.00 | 63 | 1016.8 |
| 20260905163603 | 23 | 82 | 17.7 | 32.2 | 0.00 | 0.00 | 0.00 | 62 | 1016.6 |
| 20260905162703 | 23 | 73 | 14.5 | 25.7 | 0.00 | 0.00 | 0.00 | 62 | 1016.5 |
| 20260905161803 | 23 | 70 | 12.9 | 25.7 | 0.00 | 0.00 | 0.00 | 61 | 1016.5 |
| 20260905160903 | 23 | 71 | 14.5 | 25.7 | 0.00 | 0.00 | 0.00 | 60 | 1016.6 |
| 20260905160004 | 24 | 64 | 12.9 | 20.9 | 0.00 | 0.00 | 0.00 | 58 | 1016.5 |
| 20260905155403 | 26 | 61 | 11.3 | 22.5 | 0.00 | 0.00 | 0.00 | 56 | 1016.5 |
| 20260905154717 | 27 | 49 | 6.4 | 24.1 | 0.00 | 0.00 | 0.00 | 53 | 1016.4 |
| 20260905153816 | 28 | 326 | 0.0 | 3.2 | 0.00 | 0.00 | 0.00 | 51 | 1016.5 |
| 20260905152703 | 28 | 286 | 1.6 | 6.4 | 0.00 | 0.00 | 0.00 | 51 | 1016.4 |
| 20260905151803 | 28 | 286 | 3.2 | 9.7 | 0.00 | 0.00 | 0.00 | 50 | 1016.3 |
| 20260905151117 | 28 | 264 | 3.2 | 14.5 | 0.00 | 0.00 | 0.00 | 52 | 1016.3 |
| 20260905150003 | 27 | 224 | 4.8 | 14.5 | 0.00 | 0.00 | 0.00 | 52 | 1016.1 |
| 20260905145403 | 27 | 248 | 8.0 | 17.7 | 0.00 | 0.00 | 0.00 | 54 | 1016.0 |
| 20260905144503 | 27 | 212 | 6.4 | 11.3 | 0.00 | 0.00 | 0.00 | 53 | 1015.9 |
| 20260905143818 | 26 | 188 | 8.0 | 17.7 | 0.00 | 0.00 | 0.00 | 52 | 1015.9 |
| 20260905142917 | 27 | 238 | 9.7 | 20.9 | 0.00 | 0.00 | 0.00 | 52 | 1015.9 |
| 20260905141803 | 27 | 235 | 11.3 | 22.5 | 0.00 | 0.00 | 0.00 | 52 | 1016.0 |
| 20260905140903 | 27 | 221 | 9.7 | 17.7 | 0.00 | 0.00 | 0.00 | 51 | 1016.0 |
| 20260905140004 | 27 | 225 | 9.7 | 16.1 | 0.00 | 0.00 | 0.00 | 51 | 1016.1 |
| 20260905135403 | 27 | 212 | 11.3 | 16.1 | 0.00 | 0.00 | 0.00 | 50 | 1016.1 |
| 20260905134503 | 27 | 223 | 11.3 | 19.3 | 0.00 | 0.00 | 0.00 | 51 | 1016.1 |
| 20260905133818 | 27 | 227 | 9.7 | 20.9 | 0.00 | 0.00 | 0.00 | 51 | 1016.1 |
| 20260905132917 | 27 | 231 | 8.0 | 20.9 | 0.00 | 0.00 | 0.00 | 50 | 1016.1 |
| 20260905131803 | 27 | 227 | 9.7 | 17.7 | 0.00 | 0.00 | 0.00 | 50 | 1016.0 |
| 20260905130903 | 27 | 251 | 9.7 | 17.7 | 0.00 | 0.00 | 0.00 | 49 | 1016.0 |
| 20260905130004 | 27 | 231 | 9.7 | 19.3 | 0.00 | 0.00 | 0.00 | 49 | 1016.0 |
| 20260905125403 | 27 | 241 | 8.0 | 19.3 | 0.00 | 0.00 | 0.00 | 48 | 1016.0 |
| 20260905124503 | 27 | 245 | 8.0 | 16.1 | 0.00 | 0.00 | 0.00 | 47 | 1016.3 |
| 20260905123603 | 27 | 241 | 8.0 | 14.5 | 0.00 | 0.00 | 0.00 | 47 | 1016.5 |
| 20260905122917 | 27 | 233 | 6.4 | 16.1 | 0.00 | 0.00 | 0.00 | 49 | 1016.5 |
| 20260905121803 | 26 | 236 | 8.0 | 16.1 | 0.00 | 0.00 | 0.00 | 48 | 1016.4 |
| 20260905120903 | 26 | 247 | 6.4 | 16.1 | 0.00 | 0.00 | 0.00 | 49 | 1016.5 |
| 20260905120003 | 26 | 242 | 8.0 | 16.1 | 0.00 | 0.00 | 0.00 | 48 | 1016.5 |
| 20260905115403 | 26 | 249 | 8.0 | 16.1 | 0.00 | 0.00 | 0.00 | 47 | 1016.4 |
| 20260905114718 | 26 | 268 | 6.4 | 14.5 | 0.00 | 0.00 | 0.00 | 48 | 1016.5 |
| 20260905113603 | 26 | 254 | 6.4 | 20.9 | 0.00 | 0.00 | 0.00 | 49 | 1016.5 |
| 20260905112703 | 26 | 256 | 6.4 | 12.9 | 0.00 | 0.00 | 0.00 | 50 | 1016.5 |
| 20260905111803 | 26 | 263 | 4.8 | 12.9 | 0.00 | 0.00 | 0.00 | 49 | 1016.5 |
| 20260905110903 | 26 | 239 | 6.4 | 12.9 | 0.00 | 0.00 | 0.00 | 48 | 1016.4 |
| 20260905110004 | 26 | 248 | 6.4 | 12.9 | 0.00 | 0.00 | 0.00 | 48 | 1016.3 |
| 20260905105403 | 26 | 248 | 6.4 | 12.9 | 0.00 | 0.00 | 0.00 | 51 | 1016.4 |
| 20260905104503 | 25 | 263 | 4.8 | 12.9 | 0.00 | 0.00 | 0.00 | 48 | 1016.4 |
| 20260905103603 | 25 | 239 | 6.4 | 11.3 | 0.00 | 0.00 | 0.00 | 51 | 1016.4 |
| 20260905102703 | 24 | 194 | 4.8 | 11.3 | 0.00 | 0.00 | 0.00 | 55 | 1016.4 |
| 20260905102017 | 25 | 133 | 1.6 | 8.0 | 0.00 | 0.00 | 0.00 | 54 | 1016.3 |
| 20260905100903 | 24 | 264 | 0.0 | 3.2 | 0.00 | 0.00 | 0.00 | 61 | 1016.6 |
| 20260905100003 | 23 | 274 | 1.6 | 6.4 | 0.00 | 0.00 | 0.00 | 63 | 1016.6 |
| 20260905095618 | 23 | 258 | 1.6 | 6.4 | 0.00 | 0.00 | 0.00 | 62 | 1016.6 |
| 20260905094503 | 23 | 251 | 3.2 | 6.4 | 0.00 | 0.00 | 0.00 | 60 | 1016.5 |
| 20260905093603 | 23 | 249 | 3.2 | 8.0 | 0.00 | 0.00 | 0.00 | 56 | 1016.4 |
| 20260905092703 | 23 | 200 | 1.6 | 4.8 | 0.00 | 0.00 | 0.00 | 55 | 1016.3 |
| 20260905091803 | 23 | 235 | 1.6 | 4.8 | 0.00 | 0.00 | 0.00 | 56 | 1016.3 |
| 20260905090903 | 23 | 226 | 1.6 | 6.4 | 0.00 | 0.00 | 0.00 | 52 | 1016.4 |
| 20260905090003 | 23 | 205 | 1.6 | 6.4 | 0.00 | 0.00 | 0.00 | 54 | 1016.5 |
| 20260905085403 | 23 | 238 | 0.0 | 4.8 | 0.00 | 0.00 | 0.00 | 55 | 1016.3 |
| 20260905084503 | 23 | 242 | 3.2 | 6.4 | 0.00 | 0.00 | 0.00 | 54 | 1016.3 |
| 20260905083603 | 24 | 241 | 3.2 | 9.7 | 0.00 | 0.00 | 0.00 | 53 | 1016.1 |
| 20260905082703 | 24 | 249 | 3.2 | 8.0 | 0.00 | 0.00 | 0.00 | 50 | 1016.1 |
| 20260905081804 | 24 | 211 | 3.2 | 8.0 | 0.00 | 0.00 | 0.00 | 50 | 1015.9 |
| 20260905080903 | 23 | 216 | 3.2 | 6.4 | 0.00 | 0.00 | 0.00 | 51 | 1015.8 |
| 20260905080003 | 24 | 231 | 1.6 | 9.7 | 0.00 | 0.00 | 0.00 | 51 | 1015.7 |
| 20260905075617 | 24 | 222 | 1.6 | 9.7 | 0.00 | 0.00 | 0.00 | 51 | 1015.7 |
| 20260905074719 | 24 | 0 | 0.0 | 0.0 | 0.00 | 0.00 | 0.00 | 54 | 1015.6 |
| 20260905073603 | 24 | 217 | 0.0 | 3.2 | 0.00 | 0.00 | 0.00 | 54 | 1015.6 |
| 20260905072703 | 24 | 0 | 0.0 | 0.0 | 0.00 | 0.00 | 0.00 | 52 | 1015.6 |
| 20260905071803 | 23 | 0 | 0.0 | 0.0 | 0.00 | 0.00 | 0.00 | 55 | 1015.5 |
| 20260905070903 | 23 | 0 | 0.0 | 0.0 | 0.00 | 0.00 | 0.00 | 57 | 1015.5 |
| 20260905070004 | 23 | 90 | 0.0 | 1.6 | 0.00 | 0.00 | 0.00 | 57 | 1015.3 |
| 20260905065403 | 23 | 90 | 0.0 | 1.6 | 0.00 | 0.00 | 0.00 | 57 | 1015.4 |
| 20260905064718 | 23 | 0 | 0.0 | 0.0 | 0.00 | 0.00 | 0.00 | 59 | 1015.3 |